GW0655 Weather Reports


time (UTC)temp
F
wind
direction
speed
knots
gust
knots
rain 1hr
in
rain 24hr
in
rain mn
in
humidity
%
barometer
mb
20260906193413 94 298 0.0 0.9 0.00 0.00 0.00 50 1014.5
20260906192908 94 162 0.9 1.7 0.00 0.00 0.00 50 1014.8
20260906192408 94 348 2.6 4.3 0.00 0.00 0.00 50 1014.5
20260906191902 95 303 2.6 2.6 0.00 0.00 0.00 50 1014.5
20260906191356 95 313 0.0 0.0 0.00 0.00 0.00 50 1014.5
20260906190856 95 305 0.9 0.9 0.00 0.00 0.00 51 1014.8
20260906190355 96 276 2.6 4.3 0.00 0.00 0.00 50 1014.8
20260906185850 96 21 1.7 1.7 0.00 0.00 0.00 50 1014.8
20260906185349 94 79 0.9 1.7 0.00 0.00 0.00 53 1014.8
20260906184849 95 315 1.7 1.7 0.00 0.00 0.00 52 1015.2
20260906184344 96 279 3.5 4.3 0.00 0.00 0.00 50 1014.8
20260906183839 97 331 2.6 2.6 0.00 0.00 0.00 49 1014.8
20260906183335 99 318 2.6 2.6 0.00 0.00 0.00 47 1014.8
20260906182830 99 304 1.7 1.7 0.00 0.00 0.00 47 1014.8
20260906182326 100 323 2.6 2.6 0.00 0.00 0.00 46 1015.2
20260906181826 99 71 0.0 0.0 0.00 0.00 0.00 47 1014.8
20260906181323 99 261 0.9 0.9 0.00 0.00 0.00 47 1014.8
20260906180817 96 173 1.7 2.6 0.00 0.00 0.00 46 1015.2
20260906180312 95 206 4.3 6.1 0.00 0.00 0.00 47 1015.5
20260906175809 97 248 2.6 2.6 0.00 0.00 0.00 45 1015.5
20260906175306 98 251 0.0 0.9 0.00 0.00 0.00 44 1015.5
20260906174804 96 163 1.7 1.7 0.00 0.00 0.00 47 1015.5
20260906174258 96 263 2.6 2.6 0.00 0.00 0.00 46 1015.5
20260906173753 95 189 0.9 0.9 0.00 0.00 0.00 48 1015.8
20260906173249 95 248 1.7 1.7 0.00 0.00 0.00 49 1016.2
20260906172748 96 228 2.6 4.3 0.00 0.00 0.00 50 1015.8
20260906172243 95 265 0.9 1.7 0.00 0.00 0.00 50 1016.2
20260906171738 93 233 1.7 1.7 0.00 0.00 0.00 53 1016.2
20260906171234 93 178 2.6 2.6 0.00 0.00 0.00 55 1016.2
20260906170729 92 283 0.9 0.9 0.00 0.00 0.00 56 1016.5
20260906170225 91 218 1.7 1.7 0.00 0.00 0.00 57 1016.2
20260906165721 91 314 0.9 0.9 0.00 0.00 0.00 58 1016.5
20260906165221 91 202 0.0 0.9 0.00 0.00 0.00 60 1016.5
20260906164715 91 208 2.6 4.3 0.00 0.00 0.00 60 1016.2
20260906164210 90 138 0.9 1.7 0.00 0.00 0.00 61 1016.5
20260906163706 91 205 0.0 0.0 0.00 0.00 0.00 61 1016.9
20260906163202 91 231 1.7 1.7 0.00 0.00 0.00 59 1016.5
20260906162659 93 209 0.9 0.9 0.00 0.00 0.00 58 1016.5
20260906162158 92 223 0.9 0.9 0.00 0.00 0.00 57 1016.5
20260906161653 92 219 1.7 1.7 0.00 0.00 0.00 59 1016.5
20260906161152 92 264 0.9 0.9 0.00 0.00 0.00 62 1016.5
20260906160651 91 263 0.9 0.9 0.00 0.00 0.00 63 1016.9
20260906160150 89 278 0.0 0.9 0.00 0.00 0.00 67 1016.5
20260906155648 87 235 0.9 0.9 0.00 0.00 0.00 71 1016.9
20260906155144 87 219 2.6 4.3 0.00 0.00 0.00 72 1016.5
20260906154639 87 255 1.7 2.6 0.00 0.00 0.00 72 1016.5
20260906154139 87 170 1.7 1.7 0.00 0.00 0.00 72 1016.5
20260906153637 86 150 0.9 1.7 0.00 0.00 0.00 72 1016.5
20260906153133 86 237 1.7 1.7 0.00 0.00 0.00 73 1016.9
20260906152627 86 199 1.7 2.6 0.00 0.00 0.00 74 1016.5
20260906152121 85 234 0.0 0.9 0.00 0.00 0.00 74 1016.2
20260906151616 86 245 0.0 0.0 0.00 0.00 0.00 73 1016.2
20260906151112 86 125 1.7 1.7 0.00 0.00 0.00 74 1016.5
20260906150607 85 214 1.7 1.7 0.00 0.00 0.00 75 1016.2
20260906145601 85 86 0.9 1.7 0.00 0.00 0.00 75 1016.2
20260906145055 85 157 1.7 1.7 0.00 0.00 0.00 76 1016.2
20260906144550 85 246 0.0 0.0 0.00 0.00 0.00 77 1016.2
20260906144045 84 226 1.7 1.7 0.00 0.00 0.00 78 1016.2
20260906143540 84 223 1.7 1.7 0.00 0.00 0.00 79 1016.2
20260906143032 84 236 0.9 0.9 0.00 0.00 0.00 80 1016.5
20260906142530 84 256 1.7 2.6 0.00 0.00 0.00 80 1016.2
20260906142027 83 170 0.9 1.7 0.00 0.00 0.00 80 1016.2
20260906141525 84 203 0.9 0.9 0.00 0.00 0.00 81 1016.2
20260906141021 84 213 1.7 1.7 0.00 0.00 0.00 80 1016.2
20260906140514 84 185 0.9 1.7 0.00 0.00 0.00 80 1016.2
20260906140014 82 269 0.9 0.9 0.00 0.00 0.00 82 1015.8
20260906135511 83 144 0.0 0.9 0.00 0.00 0.00 82 1016.2
20260906135007 82 171 2.6 4.3 0.00 0.00 0.00 82 1016.2
20260906134503 82 230 0.0 0.0 0.00 0.00 0.00 83 1016.2
20260906134003 82 177 0.9 1.7 0.00 0.00 0.00 83 1015.8
20260906133458 83 168 3.5 4.3 0.00 0.00 0.00 81 1015.8
20260906132954 82 192 0.0 0.9 0.00 0.00 0.00 82 1015.8
20260906132449 82 207 1.7 1.7 0.00 0.00 0.00 83 1015.5
20260906131944 82 217 1.7 1.7 0.00 0.00 0.00 84 1015.8
20260906131439 81 209 0.9 1.7 0.00 0.00 0.00 84 1015.8
20260906130935 80 154 0.9 1.7 0.00 0.00 0.00 86 1015.5
20260906130434 80 240 0.9 0.9 0.00 0.00 0.00 86 1015.5
20260906125929 79 155 1.7 1.7 0.00 0.00 0.00 87 1015.5
20260906125426 79 183 0.0 0.0 0.00 0.00 0.00 88 1015.5
20260906124926 79 226 0.0 0.0 0.00 0.00 0.00 88 1015.2
20260906124422 78 225 0.0 0.0 0.00 0.00 0.00 88 1015.2
20260906123921 78 225 0.0 0.0 0.00 0.00 0.00 88 1015.2
20260906123416 78 224 0.0 0.0 0.00 0.00 0.00 88 1015.2
20260906122916 78 234 0.0 0.0 0.00 0.00 0.00 88 1014.8
20260906122410 78 226 0.0 0.0 0.00 0.00 0.00 87 1014.8
20260906121908 78 233 0.0 0.0 0.00 0.00 0.00 87 1014.8
20260906121403 78 239 0.0 0.0 0.00 0.00 0.00 87 1014.8
20260906120859 78 237 0.0 0.0 0.00 0.00 0.00 87 1014.8
20260906120354 78 238 0.0 0.0 0.00 0.00 0.00 87 1014.8
20260906115851 78 228 0.0 0.9 0.00 0.00 0.00 86 1014.8
20260906115346 78 244 0.0 0.0 0.00 0.00 0.00 86 1014.5
20260906114845 79 235 0.0 0.0 0.00 0.00 0.00 86 1014.5
20260906114340 79 229 0.0 0.0 0.00 0.00 0.00 85 1014.1
20260906113835 79 246 0.0 0.0 0.00 0.00 0.00 85 1014.1
20260906113334 79 231 0.0 0.0 0.00 0.00 0.00 85 1014.1
20260906112830 79 231 0.0 0.0 0.00 0.00 0.00 85 1013.8
20260906112326 79 218 0.0 0.9 0.00 0.00 0.00 85 1013.8
20260906111825 79 225 0.9 0.9 0.00 0.00 0.00 85 1013.8
20260906111320 79 231 0.0 0.0 0.00 0.00 0.00 85 1013.8
20260906110815 79 225 0.0 0.0 0.00 0.00 0.00 85 1013.8
20260906110311 79 272 0.0 0.0 0.00 0.00 0.00 85 1013.8
20260906105809 79 239 0.0 0.0 0.00 0.00 0.00 85 1013.8
20260906105306 79 224 0.0 0.0 0.00 0.00 0.00 85 1013.8
20260906104801 79 233 0.0 0.0 0.00 0.00 0.00 84 1013.5
20260906104259 79 238 0.0 0.0 0.00 0.00 0.00 84 1013.5
20260906103757 79 230 0.0 0.0 0.00 0.00 0.00 84 1013.8
20260906103252 79 229 0.0 0.0 0.00 0.00 0.00 84 1013.8
20260906102748 80 237 0.0 0.0 0.00 0.00 0.00 83 1013.8
20260906102246 80 233 0.0 0.0 0.00 0.00 0.00 83 1013.8
20260906101742 80 229 0.0 0.9 0.00 0.00 0.00 82 1013.8
20260906101236 80 242 0.0 0.0 0.00 0.00 0.00 82 1013.8
20260906100732 81 214 0.0 0.0 0.00 0.00 0.00 81 1013.5
20260906100231 81 240 0.9 0.9 0.00 0.00 0.00 81 1013.8
20260906095727 81 232 0.9 0.9 0.00 0.00 0.00 81 1013.5
20260906095222 81 207 0.9 0.9 0.00 0.00 0.00 81 1013.8
20260906094721 81 223 0.9 0.9 0.00 0.00 0.00 81 1013.8
20260906094216 81 235 0.9 0.9 0.00 0.00 0.00 80 1013.8
20260906093713 81 208 0.0 0.0 0.00 0.00 0.00 80 1013.5
20260906093208 81 237 0.9 0.9 0.00 0.00 0.00 80 1013.8
20260906092703 81 194 0.0 0.9 0.00 0.00 0.00 79 1013.8
20260906092202 81 175 2.6 2.6 0.00 0.00 0.00 79 1013.8
20260906091659 81 254 0.0 0.0 0.00 0.00 0.00 79 1013.8
20260906091155 81 254 0.0 0.0 0.00 0.00 0.00 79 1013.8
20260906090651 81 206 0.9 0.9 0.00 0.00 0.00 79 1013.5
20260906090150 82 213 1.7 1.7 0.00 0.00 0.00 78 1013.5
20260906085648 82 190 1.7 1.7 0.00 0.00 0.00 78 1013.8
20260906085143 81 199 0.9 1.7 0.00 0.00 0.00 78 1013.8
20260906084638 81 232 0.9 1.7 0.00 0.00 0.00 78 1013.8
20260906084137 81 221 0.9 1.7 0.00 0.00 0.00 78 1013.8
20260906083632 82 229 0.9 1.7 0.00 0.00 0.00 78 1013.8
20260906083127 81 199 1.7 1.7 0.00 0.00 0.00 78 1013.5
20260906082623 82 185 0.9 0.9 0.00 0.00 0.00 78 1013.8
20260906082118 82 240 0.0 0.0 0.00 0.00 0.00 78 1013.8
20260906081614 82 214 0.9 0.9 0.00 0.00 0.00 77 1013.8
20260906081109 82 233 0.0 0.9 0.00 0.00 0.00 77 1013.8
20260906080605 82 208 1.7 1.7 0.00 0.00 0.00 77 1014.1
20260906075555 82 196 0.9 0.9 0.00 0.00 0.00 77 1013.8
20260906075050 82 220 1.7 1.7 0.00 0.00 0.00 76 1014.1
20260906074545 82 217 2.6 2.6 0.00 0.00 0.00 76 1014.1
20260906074043 82 201 1.7 1.7 0.00 0.00 0.00 76 1014.1
20260906073538 82 235 0.9 1.7 0.00 0.00 0.00 75 1014.1
20260906073034 83 182 0.0 0.9 0.00 0.00 0.00 75 1014.1
20260906072529 83 168 0.9 0.9 0.00 0.00 0.00 75 1014.1
20260906072025 83 186 0.9 0.9 0.00 0.00 0.00 75 1014.5
20260906071521 83 159 2.6 2.6 0.00 0.00 0.00 74 1014.1
20260906071016 83 223 0.9 1.7 0.00 0.00 0.00 74 1014.5
20260906070512 83 246 1.7 2.6 0.00 0.00 0.00 74 1014.5
20260906070008 84 235 0.0 0.9 0.00 0.00 0.00 73 1014.5
20260906065502 84 163 0.9 1.7 0.00 0.00 0.00 73 1014.5
20260906064957 84 188 0.9 0.9 0.00 0.00 0.00 73 1014.8
20260906064453 84 224 2.6 2.6 0.00 0.00 0.00 73 1014.5
20260906063948 84 236 0.9 1.7 0.00 0.00 0.00 73 1014.8
20260906063444 84 45 1.7 1.7 0.00 0.00 0.00 73 1014.8
20260906062943 84 237 0.0 0.0 0.00 0.00 0.00 73 1014.8
20260906062439 84 188 2.6 2.6 0.00 0.00 0.00 73 1014.8
20260906061933 84 209 2.6 2.6 0.00 0.00 0.00 73 1014.8
20260906061429 84 176 2.6 2.6 0.00 0.00 0.00 73 1014.8
20260906060924 84 210 2.6 2.6 0.00 0.00 0.00 73 1015.2
20260906060421 84 225 1.7 1.7 0.00 0.00 0.00 73 1014.8
20260906055917 85 228 2.6 2.6 0.00 0.00 0.00 72 1014.8
20260906055413 85 214 0.9 1.7 0.00 0.00 0.00 72 1014.8
20260906054908 85 238 1.7 1.7 0.00 0.00 0.00 72 1014.8
20260906054403 85 226 2.6 2.6 0.00 0.00 0.00 71 1014.5
20260906053859 85 222 1.7 1.7 0.00 0.00 0.00 71 1014.8
20260906053354 85 215 0.9 1.7 0.00 0.00 0.00 70 1014.8
20260906052850 85 229 1.7 1.7 0.00 0.00 0.00 71 1014.8
20260906052346 85 219 2.6 5.2 0.00 0.00 0.00 70 1014.8
20260906051843 86 204 0.9 1.7 0.00 0.00 0.00 69 1014.8
20260906051342 86 254 1.7 1.7 0.00 0.00 0.00 69 1014.5
20260906050839 86 252 0.9 1.7 0.00 0.00 0.00 69 1014.8
20260906050333 86 198 0.9 1.7 0.00 0.00 0.00 68 1014.5
20260906045832 86 192 0.9 0.9 0.00 0.00 0.00 68 1014.5
20260906045326 86 213 0.9 1.7 0.00 0.00 0.00 68 1014.8
20260906044823 86 188 0.9 0.9 0.00 0.00 0.00 68 1014.8
20260906044317 86 221 0.9 0.9 0.00 0.00 0.00 68 1014.8
20260906043813 86 222 0.9 0.9 0.00 0.00 0.00 68 1015.2
20260906043308 86 247 0.0 0.9 0.00 0.00 0.00 69 1014.8
20260906042803 86 237 0.0 0.0 0.00 0.00 0.00 68 1014.8
20260906042306 86 250 0.9 0.9 0.00 0.00 0.00 68 1014.8
20260906041758 86 214 0.9 0.9 0.00 0.00 0.00 68 1014.8
20260906041253 86 222 0.9 0.9 0.00 0.00 0.00 67 1014.8
20260906040748 86 233 0.0 0.0 0.00 0.00 0.00 67 1014.8
20260906040243 86 170 0.0 0.0 0.00 0.00 0.00 66 1014.8
20260906035738 86 204 0.0 0.9 0.00 0.00 0.00 66 1014.5
20260906035234 86 161 1.7 1.7 0.00 0.00 0.00 65 1014.5
20260906034734 86 223 0.9 1.7 0.00 0.00 0.00 65 1014.5
20260906034229 87 142 0.9 1.7 0.00 0.00 0.00 64 1014.8
20260906033725 87 189 1.7 1.7 0.00 0.00 0.00 63 1014.8
20260906033224 87 174 1.7 1.7 0.00 0.00 0.00 63 1014.8
20260906032721 87 248 0.0 0.9 0.00 0.00 0.00 62 1014.8
20260906032221 87 212 0.0 0.9 0.00 0.00 0.00 62 1014.8
20260906031716 87 232 1.7 1.7 0.00 0.00 0.00 61 1014.5
20260906031212 88 222 0.9 0.9 0.00 0.00 0.00 61 1014.5
20260906030711 88 237 0.9 0.9 0.00 0.00 0.00 60 1014.5
20260906030206 88 240 0.9 0.9 0.00 0.00 0.00 59 1014.5
20260906025706 88 133 2.6 4.3 0.00 0.00 0.00 59 1014.1
20260906025200 89 104 5.2 7.0 0.00 0.00 0.00 58 1013.8
20260906024654 89 157 2.6 4.3 0.00 0.00 0.00 58 1013.8
20260906024153 89 129 1.7 2.6 0.00 0.00 0.00 57 1013.5
20260906023650 89 81 1.7 2.6 0.00 0.00 0.00 57 1013.5
20260906023149 89 166 0.9 0.9 0.00 0.00 0.00 56 1013.5
20260906022644 90 89 1.7 1.7 0.00 0.00 0.00 56 1013.5
20260906022140 90 95 0.9 1.7 0.00 0.00 0.00 55 1012.7
20260906021636 90 61 0.9 0.9 0.00 0.00 0.00 55 1013.1
20260906021134 90 166 1.7 4.3 0.00 0.00 0.00 55 1012.7
20260906020629 91 311 3.5 6.1 0.00 0.00 0.00 54 1012.7
20260906020124 91 148 4.3 6.1 0.00 0.00 0.00 54 1012.7
20260906015618 91 265 4.3 5.2 0.00 0.00 0.00 54 1012.4
20260906015117 91 156 3.5 5.2 0.00 0.00 0.00 54 1012.7
20260906014612 91 165 0.9 1.7 0.00 0.00 0.00 54 1012.4
20260906014108 91 137 2.6 2.6 0.00 0.00 0.00 54 1012.7
20260906013603 91 90 4.3 6.1 0.00 0.00 0.00 54 1012.7
20260906013058 91 65 0.9 1.7 0.00 0.00 0.00 54 1012.7
20260906012553 91 166 0.9 1.7 0.00 0.00 0.00 54 1012.4
20260906012053 91 87 0.0 0.9 0.00 0.00 0.00 53 1012.4
20260906011549 92 218 0.9 0.9 0.00 0.00 0.00 52 1012.4
20260906011049 92 98 1.7 2.6 0.00 0.00 0.00 52 1012.4
20260906010544 91 217 0.0 0.9 0.00 0.00 0.00 51 1012.4
20260906010041 91 175 1.7 2.6 0.00 0.00 0.00 51 1012.4
20260906005540 92 172 2.6 2.6 0.00 0.00 0.00 50 1012.4
20260906005039 92 205 1.7 1.7 0.00 0.00 0.00 50 1012.4
20260906004538 91 211 2.6 4.3 0.00 0.00 0.00 50 1012.4
20260906004033 91 233 2.6 2.6 0.00 0.00 0.00 51 1012.0
20260906003528 91 134 2.6 4.3 0.00 0.00 0.00 53 1012.0
20260906003025 90 226 4.3 5.2 0.00 0.00 0.00 55 1012.4
20260906002519 92 165 4.3 5.2 0.00 0.00 0.00 53 1012.4
20260906002014 95 115 4.3 7.8 0.00 0.00 0.00 48 1012.0
20260906001510 96 126 2.6 5.2 0.00 0.00 0.00 44 1012.0
20260906001004 96 95 2.6 4.3 0.00 0.00 0.00 44 1012.0
20260906000500 97 113 1.7 1.7 0.00 0.00 0.00 43 1012.0
20260906000000 98 99 1.7 2.6 0.00 0.00 0.00 42 1012.0
20260905235454 98 61 2.6 5.2 0.00 0.00 0.00 41 1011.7
20260905234949 98 140 2.6 4.3 0.00 0.00 0.00 41 1011.7
20260905234444 99 160 1.7 1.7 0.00 0.00 0.00 40 1012.0
20260905233938 99 122 3.5 6.1 0.00 0.00 0.00 40 1012.0
20260905233434 99 165 0.9 0.9 0.00 0.00 0.00 39 1011.7
20260905232933 99 220 1.7 2.6 0.00 0.00 0.00 39 1011.7
20260905232429 99 249 0.0 0.9 0.00 0.00 0.00 39 1011.7
20260905231924 99 115 0.9 0.9 0.00 0.00 0.00 39 1011.7
20260905231420 100 121 1.7 1.7 0.00 0.00 0.00 37 1011.7
20260905230917 100 132 1.7 1.7 0.00 0.00 0.00 37 1011.7
20260905230414 100 52 0.0 0.0 0.00 0.00 0.00 37 1011.7
20260905225907 100 347 0.0 0.9 0.00 0.00 0.00 37 1011.7
20260905225403 101 56 0.9 2.6 0.00 0.00 0.00 37 1011.7
20260905224857 101 133 2.6 4.3 0.00 0.00 0.00 37 1011.7
20260905224353 100 263 0.9 1.7 0.00 0.00 0.00 37 1011.7
20260905223848 100 68 2.6 4.3 0.00 0.00 0.00 37 1011.7
20260905223346 101 277 0.9 0.9 0.00 0.00 0.00 37 1011.7
20260905222840 101 173 1.7 1.7 0.00 0.00 0.00 37 1011.7
20260905222339 102 46 0.0 0.0 0.00 0.00 0.00 36 1011.7
20260905221835 102 260 2.6 4.3 0.00 0.00 0.00 36 1011.7
20260905221332 101 197 0.9 1.7 0.00 0.00 0.00 36 1011.7
20260905220827 101 203 1.7 4.3 0.00 0.00 0.00 37 1011.7
20260905220323 102 173 1.7 2.6 0.00 0.00 0.00 36 1012.0
20260905215822 101 28 0.0 0.0 0.00 0.00 0.00 37 1011.7
20260905215318 101 269 1.7 1.7 0.00 0.00 0.00 36 1012.0
20260905214815 102 220 1.7 1.7 0.00 0.00 0.00 37 1011.7
20260905214310 101 252 2.6 4.3 0.00 0.00 0.00 36 1011.7
20260905213804 102 153 1.7 2.6 0.00 0.00 0.00 36 1012.0
20260905213300 102 246 0.9 0.9 0.00 0.00 0.00 35 1011.7
20260905212755 101 222 1.7 1.7 0.00 0.00 0.00 36 1011.7
20260905212254 101 136 1.7 1.7 0.00 0.00 0.00 37 1012.0
20260905211749 100 106 2.6 4.3 0.00 0.00 0.00 37 1012.0
20260905211244 103 185 2.6 2.6 0.00 0.00 0.00 36 1012.0
20260905210742 103 239 0.9 1.7 0.00 0.00 0.00 34 1012.0
20260905210240 102 203 0.9 0.9 0.00 0.00 0.00 36 1012.0
20260905205739 102 189 1.7 2.6 0.00 0.00 0.00 35 1012.4
20260905205235 102 202 2.6 4.3 0.00 0.00 0.00 36 1012.4
20260905204734 102 201 2.6 2.6 0.00 0.00 0.00 36 1012.0
20260905204230 101 202 1.7 2.6 0.00 0.00 0.00 36 1012.7
20260905203729 100 350 0.0 0.9 0.00 0.00 0.00 37 1012.7
20260905203225 101 200 5.2 6.1 0.00 0.00 0.00 36 1012.7
20260905202720 103 228 0.9 1.7 0.00 0.00 0.00 35 1012.7
20260905202215 101 208 0.9 1.7 0.00 0.00 0.00 35 1013.1
20260905201710 101 14 2.6 4.3 0.00 0.00 0.00 36 1012.7
20260905201205 102 293 0.0 0.0 0.00 0.00 0.00 36 1013.5
20260905200700 101 290 0.9 0.9 0.00 0.00 0.00 36 1013.5
20260905200156 101 178 1.7 2.6 0.00 0.00 0.00 35 1013.1
20260905195654 102 209 3.5 4.3 0.00 0.00 0.00 36 1013.5
20260905195149 101 226 4.3 5.2 0.00 0.00 0.00 35 1013.5
20260905194644 100 291 1.7 1.7 0.00 0.00 0.00 37 1013.5
20260905194144 100 237 3.5 5.2 0.00 0.00 0.00 37 1013.8
20260905193638 101 277 0.9 0.9 0.00 0.00 0.00 37 1013.5